QPF
0.00 0.00 0.00 0.00 0.00 0.00 0.00 0.00 0.00 0.00 0.00 0.00 0.00 0.00 0.00 0.00 0.00 0.00 0.00 0.00 0.00 0.00 0.00 0.00 0.00 0.00 0.00 0.00 0.00 0.00 0.00 0.00 0.00 0.00 0.00 0.00 0.00 0.00 0.00 0.00 0.00 0.00 0.01 0.03 0.05
0.00 0.00 0.00 0.00 0.00 0.00 0.00 0.00 0.00 0.00 0.00 0.00 0.00 0.00 0.00 0.00 0.00 0.00 0.00 0.00 0.00 0.00 0.00 0.00 0.00 0.00 0.00 0.00 0.00 0.00 0.00 0.00 0.00 0.00 0.00 0.00 0.00 0.00 0.00 0.00 0.00 0.00 0.01 0.03 0.10
0.00 0.00 0.00 0.00 0.00 0.00 0.00 0.00 0.00 0.00 0.00 0.00 0.00 0.00 0.00 0.00 0.00 0.00 0.00 0.00 0.00 0.00 0.00 0.00 0.00 0.00 0.00 0.00 0.00 0.00 0.00 0.00 0.00 0.00 0.00 0.00 0.00 0.00 0.00 0.00 0.00 0.00 0.00 0.00 0.01
0.00 0.00 0.00 0.00 0.00 0.00 0.00 0.00 0.00 0.00 0.00 0.00 0.00 0.00 0.00 0.00 0.00 0.00 0.00 0.00 0.00 0.00 0.00 0.00 0.00 0.00 0.00 0.00 0.00 0.00 0.00 0.00 0.00 0.00 0.00 0.00 0.00 0.00 0.00 0.00 0.00 0.00 0.00 0.00 0.00
0.00 0.00 0.00 0.00 0.00 0.00 0.00 0.00 0.00 0.00 0.00 0.00 0.00 0.00 0.00 0.00 0.00 0.00 0.00 0.00 0.00 0.00 0.00 0.00 0.00 0.00 0.00 0.00 0.00 0.00 0.00 0.00 0.00 0.00 0.00 0.00 0.00 0.00 0.00 0.00 0.00 0.00 0.00 0.00 0.00
0.00 0.00 0.00 0.00 0.00 0.00 0.00 0.00 0.00 0.00 0.00 0.00 0.00 0.00 0.00 0.00 0.00 0.00 0.00 0.00 0.00 0.00 0.00 0.00 0.00 0.00 0.00 0.00 0.00 0.00 0.00 0.00 0.00 0.00 0.00 0.00 0.00 0.00 0.00 0.00 0.00 0.00 0.00 0.00 0.00
0.00 0.00 0.00 0.00 0.00 0.00 0.00 0.00 0.00 0.00 0.00 0.00 0.00 0.00 0.00 0.00 0.00 0.00 0.00 0.00 0.00 0.00 0.00 0.00 0.00 0.00 0.00 0.00 0.00 0.00 0.00 0.00 0.00 0.00 0.00 0.00 0.00 0.00 0.00 0.00 0.00 0.00 0.00 0.00 0.00
0.00 0.00 0.00 0.00 0.00 0.00 0.00 0.00 0.00 0.00 0.00 0.00 0.00 0.00 0.00 0.00 0.00 0.00 0.00 0.00 0.00 0.00 0.00 0.00 0.00 0.00 0.00 0.00 0.00 0.00 0.00 0.00 0.00 0.00 0.00 0.00 0.00 0.00 0.00 0.00 0.00 0.00 0.00 0.00 0.00
0.00 0.00 0.00 0.00 0.00 0.00 0.00 0.00 0.00 0.00 0.00 0.00 0.00 0.00 0.00 0.00 0.00 0.00 0.00 0.00 0.00 0.00 0.00 0.00 0.00 0.00 0.00 0.00 0.00 0.00 0.00 0.00 0.00 0.00 0.00 0.00 0.00 0.00 0.00 0.00 0.00 0.00 0.00 0.00 0.00
0.00 0.00 0.00 0.00 0.00 0.00 0.00 0.00 0.00 0.00 0.00 0.00 0.00 0.00 0.00 0.00 0.00 0.00 0.00 0.00 0.00 0.00 0.00 0.00 0.00 0.00 0.00 0.00 0.00 0.00 0.00 0.00 0.00 0.00 0.00 0.00 0.00 0.00 0.00 0.00 0.00 0.00 0.00 0.00 0.00
0.00 0.00 0.00 0.00 0.00 0.00 0.00 0.00 0.00 0.00 0.00 0.00 0.00 0.00 0.00 0.00 0.00 0.00 0.00 0.00 0.00 0.00 0.00 0.00 0.00 0.00 0.00 0.00 0.00 0.00 0.00 0.00 0.00 0.00 0.00 0.00 0.00 0.00 0.00 0.00 0.00 0.00 0.00 0.00 0.00
0.00 0.00 0.00 0.00 0.00 0.00 0.00 0.00 0.00 0.00 0.00 0.00 0.00 0.00 0.00 0.00 0.00 0.00 0.00 0.00 0.00 0.00 0.00 0.00 0.00 0.00 0.00 0.00 0.00 0.00 0.00 0.00 0.00 0.00 0.00 0.00 0.00 0.00 0.00 0.00 0.00 0.00 0.00 0.00 0.00
0.00 0.00 0.00 0.00 0.00 0.00 0.00 0.00 0.00 0.00 0.00 0.00 0.00 0.00 0.00 0.00 0.00 0.00 0.00 0.00 0.00 0.00 0.00 0.00 0.00 0.00 0.00 0.00 0.00 0.00 0.00 0.00 0.00 0.00 0.00 0.00 0.00 0.00 0.00 0.00 0.00 0.00 0.00 0.00 0.00
0.00 0.00 0.00 0.00 0.00 0.00 0.00 0.00 0.00 0.00 0.00 0.00 0.00 0.00 0.00 0.00 0.00 0.00 0.00 0.00 0.00 0.00 0.00 0.00 0.00 0.00 0.00 0.00 0.00 0.00 0.00 0.00 0.00 0.00 0.00 0.00 0.00 0.00 0.00 0.00 0.00 0.00 0.00 0.00 0.00
0.00 0.00 0.00 0.00 0.00 0.00 0.00 0.00 0.00 0.00 0.00 0.00 0.00 0.00 0.00 0.00 0.00 0.00 0.00 0.00 0.00 0.00 0.00 0.00 0.00 0.00 0.00 0.00 0.00 0.00 0.00 0.00 0.00 0.00 0.00 0.00 0.00 0.00 0.00 0.00 0.00 0.00 0.00 0.00 0.00
0.00 0.00 0.00 0.00 0.00 0.00 0.00 0.00 0.00 0.00 0.00 0.00 0.00 0.00 0.00 0.00 0.00 0.00 0.00 0.00 0.00 0.00 0.00 0.00 0.00 0.00 0.00 0.00 0.00 0.00 0.00 0.00 0.00 0.00 0.00 0.00 0.00 0.00 0.00 0.00 0.00 0.00 0.00 0.00 0.00
0.00 0.00 0.00 0.00 0.00 0.00 0.00 0.00 0.00 0.00 0.00 0.00 0.00 0.00 0.00 0.00 0.00 0.00 0.00 0.00 0.00 0.00 0.00 0.00 0.00 0.00 0.00 0.00 0.00 0.00 0.00 0.00 0.00 0.00 0.00 0.00 0.00 0.00 0.00 0.00 0.00 0.00 0.00 0.00 0.00
0.00 0.00 0.00 0.00 0.00 0.00 0.00 0.00 0.00 0.00 0.00 0.00 0.00 0.00 0.00 0.00 0.00 0.00 0.00 0.00 0.00 0.00 0.00 0.00 0.00 0.00 0.00 0.00 0.00 0.00 0.00 0.00 0.00 0.00 0.00 0.00 0.00 0.00 0.00 0.00 0.00 0.00 0.00 0.00 0.00
0.00 0.00 0.00 0.00 0.00 0.00 0.00 0.00 0.00 0.00 0.00 0.00 0.00 0.00 0.00 0.00 0.00 0.00 0.00 0.00 0.00 0.00 0.00 0.00 0.00 0.00 0.00 0.00 0.00 0.00 0.00 0.00 0.00 0.00 0.00 0.00 0.00 0.00 0.00 0.00 0.00 0.00 0.00 0.00 0.00
0.00 0.00 0.00 0.00 0.00 0.00 0.00 0.00 0.00 0.00 0.00 0.00 0.00 0.00 0.00 0.00 0.00 0.00 0.00 0.00 0.00 0.00 0.00 0.00 0.00 0.00 0.00 0.00 0.00 0.00 0.00 0.00 0.00 0.00 0.00 0.00 0.00 0.00 0.00 0.00 0.00 0.00 0.00 0.00 0.00
0.00 0.00 0.00 0.00 0.00 0.00 0.00 0.00 0.00 0.00 0.00 0.00 0.00 0.00 0.00 0.00 0.00 0.00 0.00 0.00 0.00 0.00 0.00 0.00 0.00 0.00 0.00 0.00 0.00 0.00 0.00 0.00 0.00 0.00 0.00 0.00 0.00 0.00 0.00 0.00 0.00 0.00 0.00 0.00 0.00
0.00 0.00 0.00 0.00 0.00 0.00 0.00 0.00 0.00 0.00 0.00 0.00 0.00 0.00 0.00 0.00 0.00 0.00 0.00 0.00 0.00 0.00 0.00 0.00 0.00 0.00 0.00 0.00 0.00 0.00 0.00 0.00 0.00 0.00 0.00 0.00 0.00 0.00 0.00 0.00 0.00 0.00 0.00 0.00 0.00
0.00 0.00 0.00 0.00 0.00 0.00 0.00 0.00 0.00 0.00 0.00 0.00 0.00 0.00 0.00 0.00 0.00 0.00 0.00 0.00 0.00 0.00 0.00 0.00 0.00 0.00 0.00 0.00 0.00 0.00 0.00 0.00 0.00 0.00 0.00 0.00 0.00 0.00 0.00 0.00 0.00 0.00 0.00 0.00 0.00
0.00 0.00 0.00 0.00 0.00 0.00 0.00 0.00 0.00 0.00 0.00 0.00 0.00 0.00 0.00 0.00 0.00 0.00 0.00 0.00 0.00 0.00 0.00 0.00 0.00 0.00 0.00 0.00 0.00 0.00 0.00 0.00 0.00 0.00 0.00 0.00 0.00 0.00 0.00 0.00 0.00 0.00 0.00 0.00 0.00
0.00 0.00 0.00 0.00 0.00 0.00 0.00 0.00 0.00 0.00 0.00 0.00 0.00 0.00 0.00 0.00 0.00 0.00 0.00 0.00 0.00 0.00 0.00 0.00 0.00 0.00 0.00 0.00 0.00 0.00 0.00 0.00 0.00 0.00 0.00 0.00 0.00 0.00 0.00 0.00 0.00 0.00 0.00 0.00 0.00
0.00 0.00 0.00 0.00 0.00 0.00 0.00 0.00 0.00 0.00 0.00 0.00 0.00 0.00 0.00 0.00 0.00 0.00 0.00 0.00 0.00 0.00 0.00 0.00 0.00 0.00 0.00 0.00 0.00 0.00 0.00 0.00 0.00 0.00 0.00 0.00 0.00 0.00 0.00 0.00 0.00 0.00 0.00 0.00 0.00
0.00 0.00 0.00 0.00 0.00 0.00 0.00 0.00 0.00 0.00 0.00 0.00 0.00 0.00 0.00 0.00 0.00 0.00 0.00 0.00 0.00 0.00 0.00 0.00 0.00 0.00 0.00 0.00 0.00 0.00 0.00 0.00 0.00 0.00 0.00 0.00 0.00 0.00 0.00 0.00 0.00 0.00 0.00 0.00 0.00
MSLP
1024.03 1023.79 1023.60 1023.41 1023.30 1022.83 1022.75 1022.61 1022.33 1022.06 1021.69 1021.76 1021.54 1021.19 1021.08 1020.76 1020.57 1020.16 1019.88 1020.97 1020.26 1019.32 1018.70 1018.23 1017.65 1017.71 1017.67 1018.41 1018.64 1018.94 1020.46 1021.66 1021.55 1021.14 1020.96 1020.47 1020.01 1019.55 1019.93 1020.08 1020.38 1021.29 1021.74 1021.59 1020.62
1024.09 1023.71 1023.51 1023.40 1023.46 1023.17 1022.76 1022.68 1022.34 1022.18 1021.73 1021.57 1021.44 1021.26 1020.99 1020.79 1020.92 1020.69 1021.16 1020.45 1019.83 1019.18 1018.80 1018.75 1018.72 1018.55 1018.77 1019.15 1019.34 1020.04 1021.59 1021.91 1021.99 1021.47 1021.35 1021.26 1021.00 1020.77 1020.96 1021.20 1021.82 1022.15 1022.18 1021.74 1021.02
1024.24 1023.97 1023.64 1023.51 1023.29 1022.98 1022.89 1022.66 1022.35 1021.95 1021.89 1021.64 1021.40 1021.23 1020.92 1020.74 1021.15 1021.60 1020.88 1020.39 1019.90 1019.23 1018.87 1018.93 1019.07 1019.26 1019.86 1020.16 1020.70 1021.14 1022.05 1022.01 1021.68 1021.42 1021.22 1021.28 1021.48 1021.78 1021.96 1022.69 1023.49 1023.45 1022.95 1022.54 1021.83
1024.23 1023.89 1023.73 1023.41 1023.38 1023.17 1022.82 1022.72 1022.21 1021.82 1021.66 1021.52 1021.36 1021.08 1020.80 1020.98 1022.19 1021.91 1021.13 1020.55 1019.97 1019.31 1018.82 1019.22 1019.40 1019.89 1020.82 1021.13 1020.98 1021.79 1022.00 1021.80 1021.74 1021.45 1021.42 1021.56 1021.95 1022.86 1023.21 1024.10 1024.21 1024.13 1023.87 1023.31 1022.56
1024.10 1023.78 1023.75 1023.42 1023.44 1023.08 1022.89 1022.66 1022.21 1021.78 1021.46 1021.31 1021.13 1020.66 1020.94 1021.79 1022.65 1021.74 1021.38 1020.71 1020.10 1019.68 1019.99 1020.19 1020.54 1020.76 1021.43 1021.63 1021.64 1021.93 1022.18 1022.00 1021.90 1021.82 1021.96 1021.95 1022.68 1023.53 1024.05 1024.37 1024.51 1024.43 1024.14 1023.86 1023.78
1023.92 1023.71 1023.47 1023.45 1023.13 1023.04 1022.76 1022.67 1022.23 1021.65 1021.55 1021.26 1020.98 1020.75 1020.80 1022.26 1022.23 1021.89 1021.58 1020.96 1020.68 1020.42 1020.84 1020.77 1021.26 1021.08 1021.58 1021.89 1021.97 1022.33 1022.40 1022.42 1022.24 1022.25 1022.27 1022.86 1023.39 1023.42 1024.38 1024.58 1024.80 1024.62 1024.74 1024.60 1024.47
1024.23 1023.58 1023.40 1023.46 1023.11 1022.90 1022.63 1022.70 1022.19 1021.70 1021.39 1021.30 1021.21 1021.09 1021.64 1022.68 1022.17 1021.98 1021.61 1021.12 1021.11 1021.05 1021.14 1021.19 1021.21 1021.27 1021.94 1022.38 1022.48 1022.59 1022.90 1022.95 1022.88 1022.80 1022.75 1022.90 1023.87 1024.51 1024.68 1024.89 1025.21 1025.34 1025.38 1025.04 1024.71
1024.61 1023.58 1023.18 1023.40 1023.03 1022.61 1022.62 1022.44 1022.34 1021.67 1021.29 1021.35 1021.20 1021.41 1022.06 1021.97 1022.09 1022.04 1021.66 1021.22 1021.07 1021.03 1021.18 1021.15 1021.20 1021.68 1022.46 1022.80 1023.20 1023.62 1023.61 1024.15 1023.94 1023.31 1022.96 1023.22 1024.52 1024.94 1025.06 1025.17 1025.65 1025.84 1025.79 1025.52 1025.18
1024.64 1023.89 1023.11 1023.29 1022.96 1022.52 1022.30 1022.18 1022.12 1021.39 1021.21 1021.25 1021.25 1021.43 1022.47 1021.99 1022.28 1022.25 1022.19 1021.96 1021.45 1021.27 1021.25 1021.21 1021.54 1023.11 1023.59 1024.14 1024.81 1025.26 1025.13 1025.21 1024.51 1024.24 1023.94 1024.01 1024.93 1025.26 1025.31 1025.59 1026.23 1026.24 1026.24 1025.95 1025.60
1024.24 1024.06 1023.38 1022.98 1022.85 1022.47 1022.13 1022.02 1021.92 1021.17 1021.12 1021.16 1021.77 1022.33 1022.73 1023.27 1022.94 1022.66 1022.20 1022.04 1021.94 1021.94 1021.92 1022.56 1023.81 1024.92 1025.44 1025.35 1026.34 1026.43 1026.21 1025.92 1025.60 1025.10 1024.58 1024.81 1025.30 1025.55 1025.73 1025.90 1026.57 1026.58 1026.47 1026.36 1026.07
1024.31 1024.05 1023.26 1022.97 1022.77 1022.46 1022.08 1022.17 1022.71 1022.47 1022.67 1023.75 1023.80 1023.80 1023.65 1023.40 1023.06 1022.91 1022.54 1022.53 1022.59 1023.02 1023.95 1024.84 1025.57 1026.74 1026.78 1026.65 1026.40 1026.52 1026.77 1026.73 1026.20 1025.41 1025.33 1025.13 1025.56 1025.75 1025.83 1026.06 1026.55 1026.73 1026.72 1026.59 1026.31
1024.21 1024.10 1023.26 1022.79 1022.81 1022.45 1022.57 1023.55 1023.93 1024.06 1024.29 1024.12 1024.15 1024.06 1023.74 1023.88 1023.60 1023.42 1022.79 1023.33 1023.93 1024.85 1024.94 1025.79 1026.71 1027.02 1027.00 1026.86 1026.87 1026.89 1027.15 1027.27 1026.66 1025.89 1025.83 1025.53 1025.67 1025.87 1025.94 1026.06 1026.33 1026.68 1026.82 1026.72 1026.58
1024.00 1023.94 1023.28 1022.70 1022.85 1022.93 1023.38 1024.34 1024.39 1023.90 1024.05 1024.49 1024.21 1024.30 1024.27 1024.05 1024.41 1024.37 1024.12 1024.37 1025.04 1025.87 1026.09 1026.46 1027.36 1026.95 1026.93 1027.37 1027.17 1027.33 1027.46 1027.59 1027.78 1026.88 1025.94 1026.03 1026.09 1026.13 1026.03 1026.14 1026.26 1026.53 1026.65 1026.62 1026.67
1024.13 1023.55 1023.40 1022.61 1023.29 1023.42 1024.10 1024.33 1024.15 1023.98 1024.45 1024.96 1024.36 1024.32 1024.34 1024.15 1024.59 1024.56 1024.63 1024.85 1025.48 1026.39 1026.99 1027.57 1027.62 1027.42 1027.40 1027.55 1027.72 1027.34 1027.29 1027.53 1027.69 1027.85 1027.24 1026.73 1027.00 1026.31 1026.08 1026.22 1026.34 1026.45 1026.59 1026.56 1026.58
1024.13 1023.45 1023.26 1022.90 1023.59 1023.78 1024.25 1024.13 1024.23 1024.23 1025.32 1025.28 1024.49 1024.05 1024.17 1024.48 1025.08 1024.89 1024.89 1024.91 1026.10 1026.86 1027.60 1028.23 1028.21 1028.06 1027.87 1027.90 1027.92 1027.60 1027.34 1027.62 1027.93 1028.42 1028.31 1027.54 1027.46 1026.20 1026.04 1026.30 1026.24 1026.29 1026.32 1026.41 1026.49
1023.89 1023.43 1023.17 1023.39 1023.98 1024.29 1024.23 1024.26 1024.40 1025.06 1025.25 1025.19 1024.71 1024.49 1024.54 1024.75 1025.05 1025.20 1025.37 1025.69 1026.54 1027.31 1027.91 1028.53 1028.27 1028.52 1028.49 1027.99 1027.82 1027.63 1027.73 1028.26 1028.57 1029.18 1029.27 1028.25 1027.87 1026.36 1025.98 1025.59 1025.88 1026.07 1026.06 1026.16 1026.40
1023.86 1023.58 1023.45 1023.56 1024.38 1024.14 1024.25 1024.43 1025.32 1026.03 1026.32 1025.72 1025.24 1025.13 1025.08 1025.33 1025.51 1026.00 1026.63 1027.27 1027.82 1028.75 1029.57 1029.50 1029.08 1028.89 1028.90 1028.71 1028.13 1028.28 1028.59 1029.74 1030.65 1030.53 1029.78 1028.49 1027.83 1025.88 1025.19 1025.12 1025.36 1025.71 1025.85 1026.00 1026.24
1023.74 1023.70 1023.98 1023.87 1024.14 1024.36 1024.33 1024.92 1025.61 1025.82 1025.80 1025.77 1025.59 1025.61 1025.95 1025.84 1026.11 1026.61 1027.60 1028.44 1028.90 1029.04 1030.89 1031.14 1030.17 1029.76 1029.43 1029.55 1029.73 1029.36 1029.52 1030.62 1032.05 1032.55 1031.39 1028.86 1027.34 1025.36 1024.72 1024.83 1025.11 1025.51 1025.81 1026.02 1026.25
1023.52 1024.38 1024.20 1024.26 1024.14 1024.41 1024.75 1025.66 1025.09 1025.13 1025.38 1025.61 1026.03 1026.20 1026.37 1026.25 1026.37 1026.94 1027.95 1028.74 1029.25 1029.51 1030.18 1032.03 1031.39 1030.61 1030.10 1029.76 1030.15 1029.74 1030.27 1031.02 1032.08 1033.24 1032.68 1029.58 1027.09 1025.31 1024.93 1025.03 1025.22 1025.49 1025.94 1026.23 1026.38
1023.71 1024.60 1024.50 1024.26 1024.26 1024.75 1025.34 1025.35 1025.13 1024.94 1025.18 1025.45 1025.61 1026.08 1026.32 1026.45 1026.84 1027.00 1027.93 1028.46 1029.25 1029.76 1029.89 1032.15 1032.36 1031.54 1030.63 1030.16 1030.14 1030.17 1030.36 1031.11 1032.32 1033.42 1033.24 1030.42 1028.48 1026.28 1025.12 1025.10 1025.28 1025.54 1025.81 1026.02 1026.27
1023.76 1025.04 1024.82 1024.52 1024.53 1025.34 1026.14 1025.57 1025.19 1024.96 1024.86 1025.40 1025.39 1025.88 1025.97 1026.16 1026.66 1026.96 1027.76 1028.29 1028.92 1030.19 1030.32 1031.09 1033.17 1032.76 1032.03 1031.28 1030.90 1030.67 1031.07 1031.25 1032.29 1033.45 1033.70 1032.32 1028.64 1025.62 1025.14 1025.04 1025.28 1025.37 1025.52 1025.87 1026.25
1023.75 1025.55 1025.09 1024.64 1025.55 1026.29 1026.09 1025.30 1024.92 1025.06 1025.11 1025.17 1025.21 1025.36 1025.63 1026.14 1026.71 1027.04 1027.73 1028.11 1028.44 1029.45 1030.38 1031.05 1032.73 1033.52 1032.76 1032.02 1031.43 1031.15 1031.23 1031.58 1032.72 1033.83 1033.96 1032.98 1028.81 1025.87 1025.51 1025.31 1025.34 1025.50 1025.66 1025.90 1026.31
1023.56 1025.11 1025.24 1024.82 1025.97 1026.48 1025.88 1025.33 1024.84 1025.10 1025.01 1025.17 1025.20 1025.19 1025.42 1026.23 1027.12 1027.07 1027.83 1028.26 1028.56 1029.02 1030.06 1030.80 1032.75 1034.29 1033.27 1032.86 1031.88 1031.67 1031.54 1031.92 1032.68 1033.60 1034.07 1033.48 1028.79 1026.30 1026.07 1025.81 1025.58 1025.85 1025.93 1026.07 1026.45
1023.03 1025.01 1025.29 1025.33 1025.42 1024.63 1025.01 1025.15 1024.85 1024.64 1024.74 1024.78 1024.99 1025.25 1025.89 1026.63 1027.24 1027.61 1028.18 1028.51 1028.74 1029.19 1029.61 1030.54 1032.35 1034.12 1034.25 1032.67 1032.14 1032.42 1031.95 1032.04 1033.00 1034.10 1033.65 1031.92 1028.84 1026.78 1026.31 1026.29 1025.85 1025.97 1025.88 1026.27 1026.63
1021.53 1023.11 1022.99 1024.71 1024.82 1023.95 1023.33 1023.63 1024.35 1024.53 1024.63 1024.72 1025.11 1025.06 1025.62 1027.01 1027.45 1027.89 1028.38 1029.02 1029.26 1029.38 1030.15 1031.18 1032.47 1034.05 1034.01 1033.33 1032.58 1032.00 1031.88 1032.38 1032.89 1032.78 1032.65 1030.22 1029.35 1026.54 1025.97 1026.08 1025.82 1025.77 1025.95 1026.21 1026.36
1020.38 1021.57 1022.73 1023.08 1022.50 1023.33 1022.83 1023.19 1023.00 1023.80 1023.83 1024.43 1024.53 1024.36 1025.22 1025.80 1025.86 1026.72 1027.78 1028.51 1028.82 1030.09 1030.61 1031.30 1032.93 1033.47 1034.71 1033.82 1033.11 1032.26 1031.61 1031.58 1032.14 1031.98 1030.96 1029.74 1028.11 1025.40 1024.82 1024.91 1025.40 1025.41 1025.50 1025.94 1025.93
1018.43 1019.34 1019.64 1021.04 1021.56 1022.14 1021.58 1021.17 1021.67 1022.31 1023.07 1022.85 1023.30 1024.47 1025.17 1025.27 1025.94 1026.35 1027.00 1027.69 1028.39 1029.65 1030.80 1031.98 1032.85 1034.33 1034.81 1034.66 1033.19 1031.29 1028.83 1029.49 1029.51 1028.93 1028.71 1028.33 1025.53 1024.80 1024.56 1024.69 1024.58 1024.35 1024.41 1024.68 1025.14
Thickness
5655 5658 5660 5661 5661 5668 5668 5669 5672 5674 5678 5677 5678 5682 5681 5683 5682 5685 5685 5675 5678 5682 5684 5684 5685 5677 5674 5663 5658 5652 5618 5607 5608 5609 5607 5608 5606 5608 5604 5596 5593 5586 5583 5588 5599
5653 5658 5660 5660 5658 5661 5666 5667 5671 5671 5676 5677 5679 5680 5681 5682 5679 5677 5674 5677 5680 5682 5682 5677 5671 5666 5658 5655 5648 5632 5607 5609 5605 5605 5599 5596 5589 5588 5584 5577 5573 5573 5574 5578 5586
5649 5653 5657 5658 5659 5662 5662 5665 5669 5673 5672 5675 5677 5678 5681 5681 5676 5668 5675 5677 5678 5680 5680 5675 5666 5660 5646 5641 5631 5624 5604 5607 5604 5600 5594 5590 5581 5572 5570 5557 5552 5554 5560 5563 5569
5647 5651 5653 5657 5657 5658 5661 5662 5668 5673 5673 5673 5675 5678 5680 5678 5670 5667 5672 5674 5675 5677 5677 5667 5660 5651 5633 5629 5628 5612 5609 5605 5598 5591 5584 5574 5570 5556 5549 5542 5540 5541 5545 5549 5554
5647 5650 5650 5654 5654 5658 5659 5660 5666 5671 5673 5673 5675 5679 5677 5665 5657 5666 5667 5671 5673 5673 5664 5658 5646 5640 5626 5623 5619 5607 5602 5597 5587 5578 5567 5564 5554 5547 5538 5535 5532 5532 5535 5536 5537
5648 5649 5651 5651 5655 5656 5658 5658 5663 5671 5670 5672 5673 5677 5675 5657 5663 5663 5664 5666 5666 5664 5655 5649 5641 5636 5625 5617 5611 5605 5596 5586 5578 5566 5561 5549 5544 5547 5535 5530 5524 5525 5522 5522 5523
5642 5648 5649 5648 5652 5655 5658 5655 5661 5667 5671 5670 5669 5671 5664 5653 5660 5661 5661 5663 5661 5657 5649 5644 5639 5634 5621 5611 5607 5602 5589 5579 5565 5554 5553 5550 5537 5528 5525 5522 5513 5510 5510 5513 5516
5633 5646 5649 5645 5650 5655 5654 5656 5657 5665 5668 5667 5668 5666 5655 5659 5658 5657 5658 5660 5658 5655 5647 5643 5637 5627 5615 5609 5597 5583 5577 5557 5555 5547 5551 5546 5524 5524 5515 5511 5503 5499 5497 5501 5505
5630 5639 5648 5643 5647 5652 5654 5656 5656 5665 5665 5665 5666 5662 5651 5658 5652 5652 5652 5651 5652 5649 5645 5641 5632 5610 5599 5590 5570 5561 5561 5553 5549 5544 5542 5537 5520 5517 5508 5501 5490 5488 5489 5494 5496
5632 5633 5641 5644 5645 5648 5652 5653 5653 5662 5663 5662 5658 5655 5649 5644 5645 5646 5649 5648 5646 5641 5637 5624 5601 5584 5576 5571 5548 5560 5552 5542 5538 5535 5536 5522 5514 5510 5499 5491 5482 5480 5482 5485 5489
5627 5630 5638 5640 5641 5644 5649 5648 5644 5648 5644 5632 5636 5638 5640 5641 5643 5643 5644 5642 5639 5630 5615 5601 5585 5572 5573 5573 5572 5565 5553 5533 5531 5538 5532 5528 5515 5506 5500 5491 5483 5480 5479 5481 5486
5622 5625 5634 5638 5637 5641 5641 5632 5630 5637 5632 5632 5632 5633 5637 5634 5635 5636 5640 5634 5620 5608 5612 5590 5578 5579 5576 5569 5562 5556 5543 5525 5523 5533 5528 5527 5519 5503 5501 5498 5492 5483 5478 5480 5481
5620 5622 5628 5634 5633 5633 5630 5622 5625 5630 5629 5629 5629 5627 5628 5631 5623 5623 5626 5623 5611 5598 5590 5582 5583 5581 5580 5559 5560 5549 5541 5528 5515 5519 5530 5523 5509 5505 5503 5497 5492 5486 5483 5481 5480
5613 5619 5622 5630 5625 5625 5620 5620 5623 5626 5597 5623 5624 5623 5624 5626 5620 5621 5618 5617 5607 5600 5591 5576 5575 5574 5570 5562 5554 5560 5550 5539 5526 5509 5507 5519 5485 5504 5501 5495 5491 5486 5480 5482 5480
5606 5614 5618 5621 5617 5618 5616 5617 5617 5619 5598 5616 5617 5622 5622 5619 5614 5614 5612 5612 5600 5596 5587 5577 5565 5559 5564 5561 5555 5559 5551 5539 5531 5516 5507 5515 5476 5505 5503 5493 5491 5487 5485 5485 5482
5601 5608 5612 5613 5609 5608 5610 5611 5612 5601 5599 5598 5611 5613 5616 5612 5611 5610 5604 5601 5597 5585 5578 5571 5568 5562 5558 5557 5555 5555 5554 5536 5525 5505 5462 5511 5495 5503 5503 5512 5498 5491 5487 5487 5483
5594 5600 5604 5606 5602 5604 5605 5605 5593 5592 5585 5602 5606 5607 5606 5604 5605 5602 5587 5574 5567 5562 5528 5553 5562 5556 5553 5548 5554 5541 5527 5467 5487 5462 5486 5504 5492 5510 5520 5509 5502 5495 5490 5489 5484
5586 5591 5593 5597 5596 5596 5599 5594 5591 5570 5568 5591 5599 5601 5597 5597 5598 5595 5583 5566 5561 5549 5504 5514 5542 5548 5548 5542 5533 5536 5530 5484 5499 5467 5476 5501 5513 5529 5522 5510 5503 5496 5495 5488 5483
5578 5577 5584 5586 5588 5589 5590 5580 5598 5585 5590 5586 5587 5587 5583 5592 5591 5587 5578 5553 5560 5554 5553 5500 5526 5541 5545 5544 5533 5533 5507 5524 5472 5447 5486 5495 5517 5527 5517 5509 5503 5496 5490 5487 5484
5566 5564 5572 5577 5581 5579 5568 5593 5584 5586 5587 5590 5592 5580 5567 5585 5585 5586 5576 5572 5558 5557 5549 5513 5513 5517 5537 5542 5540 5537 5535 5498 5469 5452 5462 5486 5492 5516 5523 5517 5509 5502 5494 5489 5487
5555 5552 5561 5566 5570 5563 5565 5576 5575 5580 5588 5583 5569 5572 5587 5583 5580 5581 5577 5568 5561 5544 5541 5516 5495 5515 5522 5507 5522 5521 5501 5524 5508 5488 5453 5427 5503 5513 5523 5517 5511 5504 5502 5495 5491
5543 5531 5549 5555 5544 5523 5548 5562 5576 5571 5574 5577 5576 5584 5582 5573 5577 5575 5568 5569 5558 5547 5548 5529 5504 5488 5508 5512 5518 5527 5529 5523 5481 5473 5459 5465 5487 5528 5524 5514 5510 5506 5504 5499 5495
5530 5526 5534 5543 5535 5527 5536 5565 5570 5562 5566 5567 5572 5579 5581 5572 5566 5572 5560 5556 5552 5552 5541 5534 5497 5471 5507 5504 5511 5511 5524 5523 5504 5477 5456 5450 5491 5521 5511 5510 5507 5503 5500 5498 5493
5524 5518 5519 5524 5526 5551 5543 5546 5557 5563 5563 5566 5569 5571 5565 5549 5555 5554 5550 5550 5548 5544 5546 5537 5481 5496 5515 5531 5512 5499 5496 5519 5493 5439 5472 5479 5498 5524 5503 5495 5499 5493 5491 5487 5483
5521 5520 5525 5516 5521 5544 5562 5549 5551 5549 5557 5560 5561 5564 5561 5528 5520 5538 5542 5535 5538 5541 5532 5526 5499 5461 5478 5497 5512 5511 5497 5487 5487 5504 5480 5494 5486 5530 5514 5502 5493 5486 5489 5489 5491
5513 5514 5512 5518 5540 5538 5547 5541 5557 5550 5552 5552 5556 5559 5551 5554 5565 5540 5538 5534 5537 5523 5523 5520 5497 5485 5476 5465 5478 5486 5498 5495 5467 5469 5492 5506 5516 5542 5532 5522 5500 5493 5489 5493 5492
5519 5522 5537 5528 5527 5541 5542 5559 5556 5555 5550 5562 5560 5546 5545 5554 5551 5545 5543 5537 5534 5523 5514 5509 5493 5462 5485 5450 5459 5510 5502 5508 5504 5509 5521 5500 5534 5541 5536 5530 5521 5520 5506 5499 5496